COSMOS 2251 DEB

Satellite information

Favourite Embed

Satellite Type and Status

DEBRISIN ORBIT

Key statistics

Satellite COSMOS 2251 DEB at a glance.

Uptime

11648

Days in orbit

Revolutions

≈ 13.9

Per day

Orbit

LEO

Low Earth Orbit

Inclination

73.9

Latest

Satellite identification and parameters

Extended collection of information and parameters for COSMOS 2251 DEB.

Object identification

Identified? True

Debris? True

Object name: COSMOS 2251 DEB

International designator: 1993-036WB

Object number (NORAD): 34589

Object ID (CCSDS): 34589

Country: COMMONWEALTH OF INDEPENDENT STATES (CIS)

Current information (Y/N): Y

RCS size: SMALL

Orbital parameters

Period: 103.92 minutes

Inclination: 73.9261 deg

SMA: 7321.926 km

Apoapsis: 1126.568 km

Periapsis: 761.015 km

RAAN: 70.504 deg

Eccentricy: 0.0249629

Argument of periapsis: 57.7224 deg

Mean anomaly: 0.1671 deg

Mean motion: 13.85685721 rev/day

Mean motion (dot): 0.00000908 rev/day2

B* drag term: 0.00063717 1/REarth

Two-line elements (TLE)

Creation date: May 7, 2025, 3:14 a.m.

Reference frame: TEME

Reference center: EARTH

Epoch: May 6, 2025, 9:18 p.m. UTC

TLE line 0: 0 COSMOS 2251 DEB

TLE line 1: 1 34589U 93036WB 25126.88812785 .00000908 00000-0 63717-3 0 9997

TLE line 2: 2 34589 73.9261 70.5040 0249629 57.7224 0.1671 13.85685721816662

Live tracking on map

Real-time ground track for satellite COSMOS 2251 DEB.

In-orbit conjunctions

A list of the most updated potential collisions computed for object COSMOS 2251 DEB.

Target Orbit TCA Probability of collision Miss distance Type
ORBCOMM FM 28 LEO 2025-02-08 18:34:14 0.0005866272 320.0 (m) PAYLOAD
SL-8 R/B LEO 2024-11-16 10:23:43 0.0001294502 472.0 (m) ROCKET BODY
FENGYUN 1C DEB SSO 2024-11-09 08:44:53 0.0006211155 541.0 (m) DEBRIS

Associated space launch

Military communications satellite. Destroyed in a collision with Iridium 33.

COSMOS 2251 DEB was lifted into orbit during the mission ‘Kosmos-3M | Strela-2M 51’, on board a Kosmos-3M space rocket.

The launch took place on June 16, 1993, 4:17 a.m. from 132/1 (132L).

For more information about the launch, click the button.

Launch to space Kosmos-3M | Strela-2M 51
Kosmos-3M | Strela-2M 51

Agency: N/A

Status: Launch Successful

Launch date: June 16, 1993, 4:17 a.m. UTC

Rocket: Kosmos-3M

Launch pad: 132/1 (132L)

Location: Plesetsk Cosmodrome, Russian Federation

...

Latest news about this satellite

There are no fresh news available about this satellite. Check back as we update our databases every day.


Newsletter sign-up

Weekly statistics, charts and insights to help you stay on top of the space industry.